User: anonymous   Login
Location: *
(2.5500°S, 65.9667°W)
Time: 18:03:54
(UTC+00:00)
Language:

Cosmos 1725 Rocket - Orbit

View from above orbital plane
View from above orbital plane
View from above satellite
View from above satellite

Ground track
Ground track

The orbit data is extracted from the following two-line orbital elements,

1 16494U 86005B   22025.21008280  .00000077  00000-0  63573-4 0  9997
2 16494  82.9300 259.9225 0018796 208.5957 272.2308 13.76530910809454
Epoch (UTC): 25 January 2022 05:02:31
Eccentricity: 0.0018796
inclination: 82.9300°
perigee height: 962 km
apogee height: 990 km
right ascension of ascending node: 259.9225°
argument of perigee: 208.5957°
revolutions per day: 13.76530910
mean anomaly at epoch: 272.2308°
orbit number at epoch: 80945

The dashed part of the orbit path shows where the satellite is in the earth's shadow,  

DLR